CAPE
193 386 362 407 493 615 605 646 519 641 742 846 924 1049 1157 1338 1430 1430 1473 1337 1228 944 1078 1190 1143 1287 1229 1293 1024 969 1126 954 928 847 926 1156 1202 1129 1381 1755 1522 1347 1154
293 337 333 364 479 512 561 713 797 720 782 821 923 1031 1097 1201 1511 1600 1320 1348 1385 955 1044 916 1097 1106 749 1201 1215 857 625 838 578 636 496 734 1099 1303 1410 1493 1569 1164 1201
640 533 485 450 467 521 534 545 687 740 789 814 954 919 1035 1084 835 1134 1244 912 1138 994 1483 738 724 791 784 762 851 871 848 648 567 572 703 771 784 953 1082 1230 1234 1194 713
585 514 563 658 716 805 930 932 877 800 777 878 875 846 872 947 999 871 917 1041 1034 1269 1561 1200 1216 1300 1137 767 630 816 749 817 685 754 718 620 766 1069 1035 473 992 1007 607
530 523 551 636 742 722 723 724 651 617 664 716 758 759 797 965 859 927 976 1130 1117 1087 1434 1474 1292 1269 923 835 794 636 549 575 705 497 488 792 882 1088 944 817 726 936 543
459 476 552 595 571 726 861 912 886 867 797 700 492 583 591 750 541 330 463 698 826 767 993 871 1259 884 668 190 378 326 698 676 543 465 503 580 853 718 639 444 565 854 517
983 900 777 693 629 556 938 1043 1018 1007 953 555 286 98 228 645 478 236 164 358 501 589 601 740 853 693 621 857 783 320 230 280 552 818 704 824 821 880 870 946 853 751 584
741 682 654 773 824 757 683 746 825 891 747 487 211 46 61 302 170 133 128 241 449 563 478 471 447 634 858 988 872 959 827 727 499 476 746 867 1113 1120 819 662 662 402 0
382 360 382 444 446 393 387 457 426 398 321 411 186 87 137 101 69 24 41 145 225 380 656 733 625 477 499 375 532 830 905 843 39 22 26 47 29 14 89 117 145 163 290
5 22 108 223 270 218 182 104 95 124 119 87 76 76 68 96 13 5 16 53 96 112 182 326 339 359 386 156 399 654 548 657 401 1 0 0 0 0 0 5 289 303 326
36 41 29 24 0 1 6 12 10 30 2 1 0 0 0 0 0 0 0 0 3 51 51 70 110 40 45 32 43 212 543 905 195 48 2 5 5 3 2 1 3 2 111
315 122 57 76 2 8 1 1 2 8 2 1 0 0 0 1 0 0 0 1 1 16 29 46 44 4 1 0 0 7 21 116 35 7 2 2 3 3 3 1 1 0 0
403 224 77 14 42 110 12 4 6 1 1 0 0 1 0 2 3 0 0 0 0 0 0 0 0 1 3 2 1 0 0 2 2 2 1 3 1 2 2 2 2 1 2
300 117 0 1 1 0 0 3 2 6 4 1 0 0 0 1 1 3 2 0 0 0 0 1 1 0 0 0 0 0 2 2 2 2 2 1 1 1 1 2 4 3 0
89 2 0 0 0 0 0 0 0 0 0 1 1 1 1 2 3 0 0 0 1 1 2 2 2 1 0 0 0 0 1 0 0 1 1 2 1 1 0 0 0 0 0
0 0 0 0 0 0 0 0 0 0 0 0 0 0 0 0 0 0 0 0 1 1 2 2 2 1 1 1 0 1 1 1 1 1 1 3 0 0 0 0 0 0 0
0 0 0 0 0 0 2 0 0 0 0 0 0 0 0 0 0 0 0 0 0 0 3 2 3 2 4 3 3 1 1 3 3 3 1 0 0 0 0 0 0 0 0
0 0 0 0 0 0 0 0 0 2 3 0 0 0 0 0 0 0 0 0 2 1 2 1 4 3 3 2 1 1 0 0 1 1 0 0 0 0 0 0 0 0 0
0 0 0 0 0 0 0 0 0 0 0 0 0 0 0 0 0 0 0 49 68 49 3 10 5 5 5 5 4 3 2 2 1 0 0 0 0 0 0 0 0 0 0
5 9 4 0 0 0 0 0 0 0 0 1 0 0 0 1 1 9 24 69 96 81 103 95 5 5 7 8 3 1 2 1 1 0 0 0 0 0 0 0 0 0 0
8 12 25 41 24 27 20 23 18 16 15 0 0 0 0 0 1 18 69 38 34 51 88 27 2 1 1 0 3 0 0 0 0 0 0 0 0 0 0 0 0 0 0
9 16 35 51 43 35 27 33 29 11 0 0 0 0 0 0 0 0 28 33 33 38 36 57 8 0 0 0 0 0 0 0 0 0 0 0 0 0 0 0 0 0 0
13 24 43 36 29 17 14 29 20 9 3 0 0 0 0 0 0 0 0 0 0 0 0 0 6 31 17 0 0 0 0 0 0 0 0 0 0 0 0 0 0 0 0
7 21 42 39 31 29 37 34 30 10 14 14 21 19 9 0 0 0 0 0 0 0 0 0 0 0 0 0 0 0 0 0 0 0 0 0 0 0 0 0 0 0 0
23 34 20 19 17 20 23 18 7 7 13 13 1 4 6 12 13 8 0 0 0 0 0 0 0 0 0 0 0 0 0 0 0 0 0 0 0 0 0 0 0 0 0
22 25 19 17 15 16 10 3 0 0 0 0 2 0 0 0 13 21 20 3 0 0 0 0 0 0 1 2 0 0 0 0 0 0 0 0 0 0 0 0 0 0 0
CIN
-165 -140 -118 -101 -91 -83 -66 -50 -55 -40 -38 -36 -41 -43 -38 -37 -37 -29 -27 -19 -13 -18 -18 -22 -18 -12 -8 -12 -14 -11 -13 -12 -1 -1 -15 -13 -21 -25 -26 -39 -48 -42 -38
-167 -152 -127 -107 -90 -72 -71 -49 -46 -40 -40 -30 -30 -35 -40 -38 -39 -42 -43 -30 -25 -18 -17 -15 -17 -12 -19 -13 -14 -15 -22 -10 -13 -7 -4 -6 -13 -15 -22 -27 -24 -31 -30
-163 -148 -124 -109 -93 -84 -74 -66 -57 -45 -39 -33 -28 -29 -30 -35 -21 -18 -24 -13 -15 -18 -28 -23 -17 -9 -19 -11 -13 -14 -20 -18 -19 -11 -12 -8 -9 -13 -10 -22 -26 -28 -56
-187 -162 -134 -129 -104 -78 -54 -62 -54 -65 -59 -48 -42 -36 -29 -29 -30 -17 -10 -13 -17 -25 -27 -22 -18 -16 -18 -22 -15 -13 -14 -11 -13 -12 -11 -11 -5 -11 -13 -20 -2 -21 -43
-203 -171 -150 -128 -114 -105 -89 -89 -89 -87 -85 -70 -63 -60 -46 -32 -31 -34 -27 -28 -28 -34 -27 -30 -25 -24 -32 -25 -16 -19 -13 -10 -10 -3 -4 -1 -2 -1 -9 -3 -5 -2 -40
-207 -183 -160 -139 -151 -124 -105 -87 -78 -74 -65 -83 -99 -74 -58 -41 -48 -90 -44 -33 -33 -28 -27 -19 -28 -45 -50 -77 -57 -54 -21 -8 -9 0 -1 -3 -6 -7 -15 -20 -13 -1 -11
-124 -136 -148 -139 -145 -139 -78 -58 -58 -55 -37 -78 -96 -123 -82 -39 -73 -113 -109 -42 -35 -32 -36 -31 -24 -19 -42 -30 -42 -61 -60 -54 -30 -10 -3 -1 -3 -11 -16 -12 -14 -6 -4
-154 -165 -162 -128 -98 -89 -86 -60 -41 -27 -37 -59 -113 -177 -144 -22 -74 -110 -118 -53 -24 -22 -45 -44 -46 -29 -19 -21 -17 -7 -8 -12 -27 -44 -22 -8 -2 -5 -18 -21 -10 -13 0
-224 -232 -210 -178 -149 -147 -119 -76 -64 -56 -61 -48 -98 -127 -77 -89 -112 -120 -147 -64 -32 -26 -15 -22 -37 -48 -44 -39 -16 -10 -6 -6 -65 -185 -20 -153 -143 -17 -86 -50 -25 -9 -1
-422 -397 -273 -190 -162 -173 -171 -188 -174 -125 -97 -88 -81 -69 -63 -58 -97 -131 -125 -84 -40 -57 -60 -29 -39 -61 -60 -97 -38 -16 -12 -9 -49 -15 0 0 0 0 0 -42 -1 0 0
-385 -339 -323 -333 0 0 -208 -310 -302 -198 -6 0 0 0 0 0 0 0 0 0 -45 -62 -75 -95 -88 -190 -162 -160 -153 -66 -25 -16 -72 -108 0 0 0 0 0 0 0 0 -6
-205 -310 -330 -303 -150 -123 -1 -1 -26 -243 0 0 0 0 0 0 0 0 0 0 0 -76 -43 -28 -57 -67 -106 0 0 -202 -192 -73 -108 -151 0 0 0 0 0 0 0 0 0
-161 -220 -302 -351 -280 -195 -290 -1 -2 -1 0 0 0 0 0 0 0 0 0 0 0 0 0 0 0 0 0 0 0 0 0 -7 0 0 0 0 0 0 0 0 0 0 0
-178 -251 -118 -9 -8 0 -2 -11 -6 -1 0 -5 0 0 0 0 0 0 0 0 0 0 0 0 0 0 0 0 0 0 0 0 0 0 0 0 0 0 0 0 0 0 0
-267 0 0 0 0 0 0 0 0 0 0 -4 -4 0 0 0 0 0 0 0 0 0 0 0 0 0 0 0 0 0 0 0 0 0 0 0 0 0 0 0 0 0 0
-106 0 0 0 0 0 0 0 0 0 0 0 0 0 0 0 0 0 0 0 0 0 0 0 0 0 0 0 0 0 0 0 0 0 0 0 0 0 0 0 0 0 0
0 0 0 0 0 0 0 0 0 0 0 0 0 0 0 0 0 0 0 0 0 0 0 0 0 0 0 0 0 0 0 0 0 0 0 0 0 0 0 0 0 0 0
0 0 0 -1 0 0 0 0 0 0 0 0 0 0 0 0 0 0 0 0 -1 -1 -3 0 0 0 0 0 0 0 0 0 0 0 0 0 0 0 0 0 0 0 0
0 0 0 0 0 0 0 0 0 0 0 0 0 0 0 0 0 0 0 -134 -91 -110 -128 -66 0 0 0 0 0 0 0 0 0 0 0 0 0 0 0 0 0 0 0
-3 -14 -16 -1 0 0 0 0 0 0 0 -48 0 0 0 0 0 -174 -162 -81 -66 -74 -72 -50 0 -1 0 0 0 0 0 0 0 0 0 0 0 0 0 0 0 0 0
-3 -25 -10 0 -1 -4 -7 -8 -9 -14 -19 0 0 0 0 0 -76 -152 -68 -102 -126 -100 -65 -89 -1 0 -1 0 0 0 0 0 0 0 0 0 0 0 0 0 0 0 0
-1 -2 -1 -1 -1 -2 -4 -2 -3 -13 -5 0 0 0 0 0 0 0 -105 -110 -103 -88 -58 -25 -31 0 0 0 0 0 0 0 0 0 0 0 0 0 0 0 0 0 0
-2 -1 -1 -1 -2 -12 -19 -2 -3 -10 -12 0 0 0 0 0 0 0 0 0 0 0 0 0 -33 -33 -35 0 0 0 0 0 0 0 0 0 0 0 0 0 0 0 0
-1 -1 -1 -1 -4 -4 -2 -5 -7 -26 -14 -10 -14 -24 -24 0 0 0 0 0 0 0 0 0 0 0 0 0 0 0 0 0 0 0 0 0 0 0 0 0 0 0 0
-1 -2 -2 -2 -7 -11 -8 -10 -7 -6 -11 -15 -13 -17 -15 -30 -29 -33 -1 0 0 0 0 0 0 0 0 0 0 0 0 0 0 0 0 0 0 0 0 0 0 0 0
-1 -2 -5 -18 -17 -67 -10 -3 0 0 0 0 -8 0 0 0 -24 -22 -26 -14 0 0 0 0 0 0 -23 -56 0 0 0 0 0 0 0 0 0 0 0 0 0 0 0
Wind_Speed
17 14 14 14 11 6 6 7 10 12 16 21 20 18 18 22 26 23 19 24 28 27 22 22 23 22 22 20 18 19 19 17 22 21 20 20 19 18 18 15 15 17 15
13 10 8 10 9 10 10 7 9 10 13 14 18 21 21 19 18 20 23 22 19 28 31 25 25 22 23 21 20 21 21 22 24 26 23 20 19 20 19 17 16 15 15
9 9 8 10 10 13 9 9 8 9 11 13 15 16 20 20 20 19 20 22 23 24 24 23 25 22 25 25 26 26 24 22 21 23 23 21 22 22 20 18 17 17 16
5 8 11 9 10 9 9 10 11 10 11 11 13 18 21 23 24 26 27 28 27 27 24 23 25 24 25 28 27 27 28 24 20 20 23 23 22 21 19 18 17 16 17
5 6 9 9 9 9 9 10 12 12 13 15 16 19 24 26 28 30 30 30 30 30 28 24 24 25 24 25 28 27 25 25 24 23 24 24 23 21 19 19 18 19 19
5 4 3 6 6 7 7 9 12 13 16 16 16 19 20 27 32 31 33 35 34 33 33 29 29 27 29 29 28 30 25 23 24 25 26 24 24 23 23 20 19 20 21
13 12 10 7 4 6 6 10 11 14 16 16 17 20 22 26 32 33 33 35 36 35 34 33 31 31 31 31 30 29 26 24 22 25 27 27 27 24 24 21 19 20 21
13 14 14 10 5 6 6 6 9 14 16 17 17 17 17 27 29 30 29 31 35 36 36 35 35 35 33 30 31 29 29 27 25 25 26 27 25 23 20 21 21 21 22
11 13 14 13 12 10 7 3 4 6 11 13 17 18 14 20 26 27 25 28 33 35 36 37 37 36 35 33 33 33 31 29 25 24 24 24 22 21 21 21 21 21 24
11 12 13 14 14 14 13 11 11 11 11 11 11 13 18 22 24 23 28 32 37 37 35 35 36 39 37 33 34 33 34 30 24 24 23 22 21 23 22 22 25 23 23
11 12 13 14 14 14 14 14 14 14 13 14 15 17 18 22 23 28 30 28 33 36 37 33 35 36 37 35 33 32 34 34 26 24 23 22 22 23 23 23 23 24 23
10 12 13 14 14 14 14 15 15 14 14 14 15 17 17 18 19 21 20 21 30 29 28 31 31 29 30 30 30 31 31 28 25 23 23 24 24 24 24 22 23 22 21
10 11 13 14 15 15 15 15 15 14 13 15 17 17 18 18 18 18 17 15 16 18 20 20 23 24 21 23 26 26 23 25 23 23 21 24 22 21 15 11 14 13 14
10 12 13 14 14 15 15 16 15 14 14 15 16 16 17 18 18 18 17 18 16 15 15 15 15 16 16 17 18 22 25 23 20 19 16 15 12 11 12 14 12 14 13
10 12 14 14 14 15 16 16 16 16 16 16 16 16 17 18 17 18 17 16 15 14 14 14 16 17 16 17 15 14 18 15 14 14 10 9 11 11 11 12 13 13 13
11 14 14 14 13 13 13 14 17 16 16 16 16 16 16 17 16 16 16 15 14 13 14 14 14 13 14 14 13 13 14 13 12 10 10 10 9 9 10 12 11 11 11
13 13 13 11 11 12 12 13 14 16 16 17 17 16 15 14 14 13 13 13 14 14 14 14 15 14 14 14 14 13 13 12 11 10 9 9 10 11 10 10 10 11 11
12 10 9 9 9 10 11 12 14 14 14 15 16 16 15 14 13 13 13 13 15 14 14 14 14 14 14 14 14 13 13 12 12 11 11 10 10 10 10 10 10 9 9
9 7 7 8 9 9 10 11 13 14 14 14 14 14 13 13 12 12 13 14 15 14 14 14 13 13 12 12 12 12 11 10 10 10 10 9 9 9 9 9 9 9 9
6 4 5 7 8 9 10 11 12 13 13 12 12 12 12 11 9 10 11 13 14 13 13 13 13 12 12 12 12 12 11 11 10 10 10 9 9 8 8 8 8 8 8
6 3 4 6 7 8 9 10 10 12 13 13 14 14 13 12 11 10 10 10 13 13 13 12 12 12 12 12 11 11 11 10 10 9 8 8 7 7 8 8 8 9 9
5 3 5 6 8 7 8 9 10 11 13 15 15 16 15 15 14 14 13 11 10 12 14 13 12 12 12 11 11 10 10 9 8 8 7 7 7 7 8 8 8 9 9
6 9 8 7 8 8 7 8 9 11 12 13 14 15 15 13 13 13 13 12 12 11 11 10 10 10 10 10 10 9 9 8 8 7 7 6 6 6 7 8 8 8 9
12 9 5 5 7 6 7 7 8 9 10 11 11 11 12 12 12 11 10 10 10 9 10 9 9 9 9 8 9 8 8 8 8 7 7 8 7 7 8 9 7 8 10
12 8 4 3 4 4 6 8 9 9 9 10 11 9 8 8 8 9 9 8 8 8 9 9 9 9 8 7 8 7 7 5 5 6 6 6 7 8 7 9 8 9 10
11 9 6 5 4 6 7 8 8 8 8 10 11 10 9 9 8 7 6 6 6 6 7 9 8 7 7 7 5 3 4 5 4 3 2 5 6 6 7 6 7 8 8
Wind_Direction
182 180 180 182 190 223 228 259 274 272 278 279 281 284 286 285 279 282 287 281 274 277 291 294 293 295 299 303 307 308 309 316 307 315 322 324 328 334 337 342 341 332 343
192 208 214 193 189 199 207 235 270 266 272 273 279 280 283 287 288 284 281 285 290 282 276 289 290 293 294 298 302 304 306 306 304 301 308 318 323 327 331 336 336 336 338
188 198 228 206 204 199 225 246 248 257 262 267 270 272 281 281 284 286 285 284 287 293 292 291 291 294 289 289 293 295 304 306 309 306 308 313 315 320 324 328 331 332 335
241 196 195 211 211 219 248 257 266 266 268 264 263 273 277 279 280 281 283 283 285 288 291 288 288 291 290 287 292 295 296 302 308 308 307 310 312 317 321 325 329 332 332
206 209 213 269 260 249 248 255 268 270 272 276 279 280 279 278 277 277 278 280 282 283 285 287 287 288 292 294 293 298 300 299 300 303 304 307 310 310 315 322 323 326 329
309 189 231 273 268 246 236 273 272 277 282 280 282 284 284 284 279 277 275 274 276 278 279 281 283 285 286 290 292 292 297 298 298 298 301 304 305 308 308 312 316 320 323
308 312 317 313 278 219 256 285 277 280 282 280 281 285 286 289 280 277 276 274 274 275 277 279 282 282 284 287 289 292 293 292 292 295 296 298 300 304 307 311 313 316 318
312 315 319 330 329 314 298 273 283 288 285 284 285 285 294 297 277 279 283 279 275 275 275 277 278 280 283 286 289 293 290 291 292 292 294 296 300 306 310 310 311 313 316
334 337 335 342 352 352 354 353 322 301 298 293 292 291 288 295 287 288 283 282 279 278 277 277 276 279 281 283 285 287 289 288 292 294 296 298 301 304 306 307 307 309 310
350 352 351 353 354 357 6 10 0 350 339 332 320 309 305 299 292 292 286 281 279 280 281 281 280 276 279 280 282 284 284 285 286 291 295 297 300 303 304 302 304 306 308
6 358 350 348 349 350 351 354 0 360 357 346 334 325 321 310 304 294 287 288 284 282 279 284 284 281 276 277 279 281 282 284 284 287 290 293 297 301 304 305 304 304 305
357 352 346 345 342 344 350 350 352 359 3 2 354 343 337 331 325 313 307 300 292 291 287 284 289 287 279 279 280 281 283 284 285 284 286 289 293 297 304 310 308 310 316
357 350 344 342 340 340 345 349 351 355 360 358 352 346 343 342 337 329 330 330 323 318 317 309 301 296 285 285 289 286 290 285 284 286 288 295 289 306 312 334 345 4 359
346 345 345 342 341 341 342 343 346 349 350 351 350 348 347 345 345 344 336 332 333 339 336 338 328 319 314 297 303 300 298 286 288 287 295 311 313 325 329 335 347 353 345
333 334 338 339 339 342 343 341 344 343 342 344 345 343 338 336 342 343 343 344 346 352 352 352 339 323 323 319 324 335 292 339 301 297 313 305 321 329 336 339 340 345 346
324 326 331 336 336 340 349 353 351 354 351 348 346 344 342 339 338 340 348 1 12 10 352 344 350 355 349 349 343 335 322 341 335 318 325 324 340 352 351 340 10 5 18
322 327 333 336 336 340 350 348 352 353 354 351 349 353 359 6 7 6 8 7 9 12 360 358 3 8 5 355 343 324 325 341 336 350 6 344 349 351 13 17 19 34 45
326 334 340 345 350 354 359 359 348 359 11 11 4 14 21 31 38 29 16 13 353 348 19 8 0 5 10 16 14 19 40 55 62 61 60 61 66 61 69 56 48 43 40
325 339 352 0 7 11 6 2 347 5 18 35 51 44 35 39 36 24 7 355 349 351 350 344 7 13 31 39 42 47 53 60 53 48 46 47 50 55 56 51 38 27 25
336 353 8 10 12 9 353 347 1 15 35 53 73 91 85 69 71 47 17 0 356 5 10 0 25 41 48 50 50 54 65 63 60 65 61 54 55 56 55 45 30 21 13
327 12 360 348 0 348 353 5 19 36 51 67 86 122 116 115 107 97 60 44 356 1 13 42 42 45 50 49 53 57 59 61 68 60 52 54 52 41 20 9 6 2 1
314 330 330 332 325 356 12 9 41 58 75 79 87 102 115 126 125 121 111 95 33 357 343 354 11 27 35 43 47 53 51 46 45 42 40 34 23 10 7 3 1 358 355
286 285 296 309 320 327 359 1 34 52 69 75 76 81 95 106 110 112 110 109 101 96 84 88 82 64 54 51 45 44 40 37 44 50 46 39 22 14 2 0 356 345 338
268 281 308 331 321 341 341 346 1 16 22 36 52 80 95 92 93 93 94 92 87 77 69 70 70 60 46 41 28 31 31 21 11 12 12 8 5 357 350 342 344 337 332
264 282 316 353 9 360 349 345 337 348 3 8 18 45 61 71 76 68 64 65 63 51 40 41 42 41 43 40 23 23 29 40 21 5 10 5 358 350 346 340 336 332 328
267 278 297 318 341 347 346 339 338 339 344 347 352 1 10 19 30 40 40 46 45 32 14 2 6 13 17 18 32 69 105 130 134 150 11 355 350 341 340 337 330 327 324